sat.trackr.live / text

‹ back to catalog

STARLINK-11551 [DTC]

NORAD 62840 · 2025-019M

PAYLOAD ACTIVE UNKNOWN

§ Identity

Operator
Country
US
Launch date
2025-01-27
Launch site
AFETR
Launch vehicle
Mass (kg)
RCS (m²)

Purposes: comms

External: N2YO · Heavens-Above · Gunter

§ Orbital elements

Epoch: 2026-09-21T12:56:54.141792Z

Period
91.67 min
Inclination
42.9993°
Eccentricity
0.0000455
Mean motion
15.70861366 rev/d
Perigee alt
356.1 km
Apogee alt
356.7 km
Semi-major
6,734.6 km
B*
9.5383e-4
RAAN
205.3895°
Arg perigee
23.5166°
Mean anomaly
336.5722°
Rev number
9,468

§ Raw data

STARLINK-11551 [DTC]1 62840U 25019M   26264.53951553  .00123891  00000+0  95383-3 0  99972 62840  42.9993 205.3895 0000455  23.5166 336.5722 15.70861366 94685

JSON: /api/v1/satellites/62840 · /tle

For live sub-satellite position, see the globe view (requires WebGL).

§ Visibility from observer

Set your observer location to see the next 7 days of passes ≥ 10°. The values pass through the URL so the page stays shareable.

No JS? Fill the form by hand. The geolocation button needs JavaScript.